Location: Le Domaine
(47.0333°N, 76.5361°W)
Time: 19:00:01
(UTC-05:00)

Transit 2A Rocket - Pass Details

Date: 19 November 2019
Orbit: 594 x 909 km, 66.7° (Epoch: 14 December)

Event Time Altitude Azimuth Distance (km) Brightness Sun altitude
Exits shadow 04:34:50 14° 11° (N) 1,698 6.9 -27.0°
Maximum altitude 04:36:25 16° 36° (NE) 1,573 7.0 -26.8°
Drops below altitude 10° 04:39:14 10° 76° (ENE) 1,973 8.1 -26.3°
Sets 04:42:18 0° 98° (E) 2,915 9.4 -25.8°
